Tracking 35334 objects as of 13-Sep-2026
HD Live streaming from Space Station
objects crossing your sky now

ARIANE 44L+ DEB

Track ARIANE 44L+ DEB now!


NORAD ID: 28577
Int'l Code: 1992-021R
Launch date: April 15, 1992
Source: France (FR)
Launch site: FRENCH GUIANA (FRGUI)

Note: This is SATELLITE DEBRIS
Your satellite tracking list
Your tracking list is empty




NASA's NSSDC Master Catalog

Two Line Element Set (TLE):
1 28577U 92021R   26255.59468530 -.00000083  00000-0  00000+0 0  9994
2 28577   3.6853  69.7295 6988233 354.9724 291.5504  2.23210731179674
Source of the keplerian elements: AFSPC